This is the latest recevied weather packets stored in our database for station/object KC3ELT-10. If no packets are shown the sender has not sent any weather packets the latest 10 day(s).
| Time | Temp. | Humidity | Pressure | Rain* | Wind** | Luminosity | Snow |
|---|---|---|---|---|---|---|---|
| 1777378979 | 9.44° C | 61% | 1015.6 hPa | 0 mm | 1.79 m/s, 197° | - | - |
| 1777378678 | 9.44° C | 62% | 1015.6 hPa | 0 mm | 0.45 m/s, 215° | - | - |
| 1777378378 | 9.44° C | 60% | 1015.6 hPa | 0 mm | 0.89 m/s, 248° | - | - |
| 1777378078 | 9.44° C | 61% | 1015.6 hPa | 0 mm | 1.79 m/s, 231° | - | - |
| 1777377779 | 9.44° C | 61% | 1015.6 hPa | 0 mm | 1.34 m/s, 238° | - | - |
| 1777377479 | 9.44° C | 62% | 1015.9 hPa | 0 mm | 3.13 m/s, 191° | - | - |
| 1777377178 | 9.44° C | 62% | 1015.9 hPa | 0 mm | 0.89 m/s, 245° | - | - |
| 1777376878 | 8.89° C | 63% | 1015.9 hPa | 0 mm | 2.24 m/s, 252° | - | - |
| 1777376579 | 8.89° C | 65% | 1016.1 hPa | 0 mm | 0.89 m/s, 252° | - | - |
| 1777376278 | 8.89° C | 65% | 1016.1 hPa | 0 mm | 0.45 m/s, 254° | - | - |
| 1777375978 | 8.33° C | 66% | 1016.1 hPa | 0 mm | 1.79 m/s, 250° | - | - |
| 1777375679 | 8.33° C | 66% | 1016.2 hPa | 0 mm | 0 m/s | - | - |
| 1777375378 | 8.33° C | 66% | 1016.2 hPa | 0 mm | 0.45 m/s, 212° | - | - |
| 1777375078 | 8.33° C | 66% | 1016.2 hPa | 0 mm | 0 m/s | - | - |
| 1777374778 | 8.33° C | 67% | 1015.6 hPa | 0 mm | 1.34 m/s, 248° | - | - |
| 1777374478 | 8.33° C | 67% | 1015.6 hPa | 0 mm | 0.45 m/s, 270° | - | - |
| 1777374178 | 7.78° C | 68% | 1015.6 hPa | 0 mm | 0.89 m/s, 278° | - | - |
| 1777373879 | 7.78° C | 69% | 1015.6 hPa | 0 mm | 1.79 m/s, 260° | - | - |
| 1777373578 | 7.78° C | 69% | 1015.6 hPa | 0 mm | 0.89 m/s, 273° | - | - |
| 1777373278 | 7.78° C | 69% | 1015.6 hPa | 0 mm | 0.89 m/s, 266° | - | - |
| 1777372978 | 7.78° C | 70% | 1015.7 hPa | 0 mm | 0.45 m/s, 258° | - | - |
| 1777372679 | 7.78° C | 70% | 1015.7 hPa | 0 mm | 1.34 m/s, 259° | - | - |
| 1777372378 | 7.78° C | 70% | 1015.7 hPa | 0 mm | 1.34 m/s, 247° | - | - |
| 1777372079 | 7.78° C | 70% | 1016.5 hPa | 0 mm | 2.24 m/s, 243° | - | - |
| 1777371778 | 7.78° C | 70% | 1016.5 hPa | 0 mm | 0.45 m/s, 190° | - | - |
* Rain latest hour (hover to see other rain measurements)
** Current wind speed in m/s (hover to see current wind gust speed)